Oceana NAS, VA

12:26 AM EDT on March 29, 2017 (GMT -0400)
Oceana Naval Air Station

Weather History for KNTU - December, 2011

Change the Weather History Date:

Thursday, December 1, 2011

  Actual Average Record
Temperature  
Mean Temperature 43 °F -  
Max Temperature 50 °F 55 °F 77 °F (2001)
Min Temperature 36 °F 37 °F 30 °F (2002)
Degree Days  
Heating Degree Days 22    
Moisture  
Dew Point 32 °F    
Average Humidity 64    
Maximum Humidity 82    
Minimum Humidity 44    
Precipitation  
Precipitation 0.00 in - - ()
Sea Level Pressure  
Sea Level Pressure 30.25 in    
Wind  
Wind Speed 12 mph (NNW)    
Max Wind Speed 20 mph    
Max Gust Speed 26 mph    
Visibility 10 miles    
Events      
Averages and records for this station are not official NWS values.
T = Trace of Precipitation, MM = Missing Value Source: NWS Daily Summary

Daily Weather History Graph

Daily Weather History Graph

Search for Another Location

Airport or City:

Trip Planner

Search our weather history database for the weather conditions in past years. The results will help you decide how hot, cold, wet, or windy it might be!

Date:

Astronomy

Dec. 01, 2011 Rise Set
Actual Time 6:58 AM EST 4:48 PM EST
Civil Twilight 6:29 AM EST 5:16 PM EST
Nautical Twilight 5:57 AM EST 5:48 PM EST
Astronomical Twilight 5:26 AM EST 6:19 PM EST
Moon 11:48 AM EST (12/1) 11:37 PM EST (12/1)
Length of Visible Light 10h 46m
Length of Day
9h 50m
Waxing Crescent, 43% of the Moon is Illuminated
Dec 1
Waxing Crescent
Dec 2
First Quarter
Dec 10
Full
Dec 17
Last Quarter
Dec 24
New

Hourly Weather History & Observations

Time (EST) Temp. Windchill Dew Point Humidity Pressure Visibility Wind Dir Wind Speed Gust Speed Precip Events Conditions
12:56 AM 45.0 °F 38.5 °F 34.0 °F 65% 30.09 in 10.0 mi NNW 13.8 mph 26.5 mph N/A   Mostly Cloudy
1:56 AM 45.0 °F 37.6 °F 34.0 °F 65% 30.11 in 10.0 mi NNW 17.3 mph 21.9 mph N/A   Mostly Cloudy
2:56 AM 43.0 °F 36.8 °F 33.1 °F 68% 30.12 in 10.0 mi North 11.5 mph - N/A   Scattered Clouds
3:56 AM 43.0 °F 35.4 °F 30.9 °F 62% 30.14 in 10.0 mi NNW 16.1 mph 23.0 mph N/A   Scattered Clouds
4:56 AM 42.1 °F 34.5 °F 30.9 °F 65% 30.16 in 10.0 mi NNW 15.0 mph - N/A   Scattered Clouds
5:56 AM 42.1 °F 35.2 °F 30.9 °F 65% 30.19 in 10.0 mi NNW 12.7 mph - N/A   Partly Cloudy
6:56 AM 41.0 °F 33.1 °F 30.9 °F 67% 30.21 in 10.0 mi North 15.0 mph 20.7 mph N/A   Partly Cloudy
7:56 AM 43.0 °F 36.0 °F 32.0 °F 65% 30.24 in 10.0 mi North 13.8 mph - N/A   Partly Cloudy
8:56 AM 46.0 °F 40.2 °F 33.1 °F 61% 30.26 in 10.0 mi NNW 12.7 mph 21.9 mph N/A   Partly Cloudy
9:56 AM 48.0 °F - 34.0 °F 58% 30.28 in 10.0 mi North 19.6 mph 24.2 mph N/A   Partly Cloudy
10:56 AM 48.0 °F - 35.1 °F 61% 30.28 in 10.0 mi North 16.1 mph 24.2 mph N/A   Partly Cloudy
11:56 AM 48.9 °F - 35.1 °F 59% 30.27 in 10.0 mi North 17.3 mph - N/A   Partly Cloudy
12:56 PM 48.9 °F - 35.1 °F 59% 30.26 in 10.0 mi NNW 16.1 mph 24.2 mph N/A   Clear
1:56 PM 50.0 °F - 32.0 °F 50% 30.26 in 10.0 mi NNW 13.8 mph - N/A   Clear
2:56 PM 50.0 °F - 30.0 °F 46% 30.27 in 10.0 mi NNW 10.4 mph - N/A   Partly Cloudy
3:56 PM 50.0 °F - 28.9 °F 44% 30.28 in 10.0 mi NNW 8.1 mph - N/A   Clear
4:56 PM 45.0 °F 42.6 °F 30.9 °F 58% 30.29 in 10.0 mi WNW 4.6 mph - N/A   Clear
5:56 PM 41.0 °F 38.0 °F 30.0 °F 65% 30.30 in 10.0 mi WNW 4.6 mph - N/A   Clear
6:56 PM 42.1 °F - 30.0 °F 62% 30.32 in 10.0 mi Calm Calm - N/A   Clear
7:56 PM 37.9 °F 34.4 °F 30.0 °F 73% 30.32 in 10.0 mi SW 4.6 mph - N/A   Clear
8:56 PM 37.0 °F - 30.9 °F 79% 30.33 in 10.0 mi Calm Calm - N/A   Clear
9:56 PM 36.0 °F - 30.9 °F 82% 30.35 in 10.0 mi Calm Calm - N/A   Clear
10:56 PM 37.0 °F - 30.9 °F 79% 30.36 in 10.0 mi Calm Calm - N/A   Clear
11:56 PM 36.0 °F - 30.0 °F 79% 30.35 in 10.0 mi Calm Calm - N/A   Clear